Preston, MN

5:55 AM CDT on May 28, 2018 (GMT -0500)
Preston

Weather History for KFKA - September, 2012

Change the Weather History Date:

Sunday, September 23, 2012

  Actual Average (KRST) Record (KRST)
Temperature  
Mean Temperature 44 °F 58 °F  
Max Temperature 57 °F 69 °F 92 °F (1937)
Min Temperature 32 °F 47 °F 28 °F (1989)
Degree Days  
Heating Degree Days 20 8  
Month to date heating degree days 108  
Since 1 July heating degree days 146  
Cooling Degree Days 0 1  
Month to date cooling degree days 48  
Year to date cooling degree days 573  
Moisture  
Dew Point 27 °F    
Average Humidity 55    
Maximum Humidity 83    
Minimum Humidity 28    
Precipitation  
Precipitation 0.00 in 0.11 in 4.34 in (2010)
Month to date precipitation 2.70  
Year to date precipitation 26.89  
Snow  
Snow 0.00 in 0.00 in 0.00 in (2012)
Month to date snowfall 0.0  
Since 1 July snowfall 0.0  
Snow Depth -    
Sea Level Pressure  
Sea Level Pressure 30.26 in    
Wind  
Wind Speed 6 mph (WNW)    
Max Wind Speed 14 mph    
Max Gust Speed 23 mph    
Visibility 10 miles    
Events      
T = Trace of Precipitation, MM = Missing Value Source: NWS Daily Summary

Daily Weather History Graph

Daily Weather History Graph

Search for Another Location

Airport or City:

Astronomy

Sep. 23, 2012 Rise Set
Actual Time 6:57 AM CDT 7:03 PM CDT
Civil Twilight 6:29 AM CDT 7:31 PM CDT
Nautical Twilight 5:55 AM CDT 8:05 PM CDT
Astronomical Twilight 5:21 AM CDT 8:39 PM CDT
Moon 3:14 PM CDT (9/23) No Moon Set
Length of Visible Light 13h 02m
Length of Day
12h 05m
First Quarter, 60% of the Moon is Illuminated
Sep 23
First Quarter
Sep 29
Full
Oct 8
Last Quarter
Oct 15
New
Oct 21
First Quarter

Hourly Weather History & Observations

Time (CDT) Temp. Windchill Dew Point Humidity Pressure Visibility Wind Dir Wind Speed Gust Speed Precip Events Conditions
12:10 AM 39.4 °F 36.1 °F 30.0 °F 69% 30.24 in 10.0 mi NW 4.6 mph - N/A   Clear
12:30 AM 38.3 °F 33.9 °F 29.8 °F 72% 30.24 in 10.0 mi NW 5.8 mph - N/A   Clear
12:50 AM 38.1 °F 33.7 °F 29.7 °F 72% 30.24 in 10.0 mi NW 5.8 mph - N/A   Clear
1:10 AM 36.7 °F 32.0 °F 29.3 °F 75% 30.24 in 10.0 mi WNW 5.8 mph - N/A   Clear
1:30 AM 36.5 °F 32.7 °F 29.5 °F 76% 30.25 in 10.0 mi WNW 4.6 mph - N/A   Clear
1:51 AM 36.9 °F 33.1 °F 29.3 °F 74% 30.25 in 10.0 mi WNW 4.6 mph - N/A   Clear
2:10 AM 35.6 °F 30.7 °F 29.3 °F 78% 30.25 in 10.0 mi WNW 5.8 mph - N/A   Clear
2:31 AM 34.9 °F 29.0 °F 28.8 °F 78% 30.25 in 10.0 mi WNW 6.9 mph - N/A   Clear
2:50 AM 35.1 °F 30.1 °F 28.4 °F 77% 30.25 in 10.0 mi WNW 5.8 mph - N/A   Clear
3:10 AM 34.3 °F 28.4 °F 28.4 °F 79% 30.25 in 10.0 mi WNW 6.9 mph - N/A   Clear
3:30 AM 33.8 °F 27.7 °F 28.4 °F 81% 30.26 in 10.0 mi WNW 6.9 mph - N/A   Clear
3:50 AM 33.6 °F 28.4 °F 28.0 °F 80% 30.26 in 10.0 mi WNW 5.8 mph - N/A   Clear
4:10 AM 33.8 °F 27.0 °F 28.0 °F 79% 30.26 in 10.0 mi WNW 8.1 mph - N/A   Clear
4:30 AM 33.8 °F 27.0 °F 28.2 °F 80% 30.26 in 10.0 mi WNW 8.1 mph - N/A   Clear
4:51 AM 33.3 °F 27.1 °F 27.9 °F 81% 30.26 in 10.0 mi WNW 6.9 mph - N/A   Clear
5:10 AM 32.2 °F 26.7 °F 27.3 °F 82% 30.27 in 10.0 mi NW 5.8 mph - N/A   Clear
5:30 AM 32.0 °F 26.4 °F 27.3 °F 83% 30.27 in 10.0 mi NW 5.8 mph - N/A   Clear
5:50 AM 32.0 °F 26.4 °F 27.3 °F 83% 30.27 in 10.0 mi NW 5.8 mph - N/A   Clear
6:10 AM 32.0 °F 27.5 °F 27.5 °F 83% 30.27 in 10.0 mi NW 4.6 mph - N/A   Clear
6:30 AM 32.4 °F 27.9 °F 27.5 °F 82% 30.28 in 10.0 mi NW 4.6 mph - N/A   Clear
6:50 AM 32.2 °F 27.7 °F 27.5 °F 83% 30.28 in 10.0 mi NW 4.6 mph - N/A   Clear
7:11 AM 32.0 °F 26.4 °F 27.5 °F 83% 30.28 in 10.0 mi WNW 5.8 mph - N/A   Clear
7:30 AM 32.7 °F 27.3 °F 28.0 °F 83% 30.29 in 10.0 mi WNW 5.8 mph - N/A   Clear
7:50 AM 34.9 °F 30.8 °F 29.3 °F 80% 30.29 in 10.0 mi WNW 4.6 mph - N/A   Clear
8:10 AM 36.3 °F 32.5 °F 30.2 °F 78% 30.30 in 10.0 mi WNW 4.6 mph - N/A   Clear
8:30 AM 38.5 °F 34.1 °F 31.5 °F 76% 30.30 in 10.0 mi WNW 5.8 mph - N/A   Clear
9:10 AM 43.0 °F 40.3 °F 32.2 °F 66% 30.31 in 10.0 mi WNW 4.6 mph - N/A   Clear
9:30 AM 45.0 °F 43.5 °F 32.2 °F 61% 30.31 in 10.0 mi West 3.5 mph - N/A   Clear
9:50 AM 47.3 °F - 30.4 °F 52% 30.31 in 10.0 mi NW 8.1 mph - N/A   Clear
10:10 AM 49.1 °F - 29.5 °F 47% 30.32 in 10.0 mi WNW 6.9 mph - N/A   Clear
10:30 AM 49.3 °F - 28.2 °F 44% 30.32 in 10.0 mi WNW 9.2 mph - N/A   Clear
10:50 AM 51.4 °F - 28.6 °F 41% 30.31 in 10.0 mi NW 12.7 mph 19.6 mph N/A   Scattered Clouds
11:30 AM 50.4 °F - 27.7 °F 42% 30.31 in 10.0 mi North 6.9 mph - N/A   Mostly Cloudy
11:50 AM 52.0 °F - 26.8 °F 38% 30.31 in 10.0 mi NNW 9.2 mph - N/A   Mostly Cloudy
12:10 PM 50.4 °F - 27.1 °F 41% 30.31 in 10.0 mi West 9.2 mph - N/A   Scattered Clouds
12:50 PM 53.4 °F - 26.1 °F 35% 30.30 in 10.0 mi NW 12.7 mph 18.4 mph N/A   Clear
1:10 PM 53.6 °F - 26.1 °F 35% 30.30 in 10.0 mi NW 13.8 mph 18.4 mph N/A   Clear
1:30 PM 53.8 °F - 25.2 °F 33% 30.29 in 10.0 mi NNW 11.5 mph 23.0 mph N/A   Clear
1:50 PM 54.5 °F - 24.8 °F 32% 30.28 in 10.0 mi West 9.2 mph 19.6 mph N/A   Clear
2:10 PM 54.5 °F - 24.8 °F 32% 30.28 in 10.0 mi WNW 9.2 mph 19.6 mph N/A   Clear
2:30 PM 55.6 °F - 25.5 °F 31% 30.27 in 10.0 mi WNW 11.5 mph 18.4 mph N/A   Clear
2:50 PM 56.1 °F - 24.1 °F 29% 30.26 in 10.0 mi North 13.8 mph 17.3 mph N/A   Clear
3:10 PM 56.7 °F - 24.4 °F 29% 30.26 in 10.0 mi NW 12.7 mph - N/A   Clear
3:30 PM 56.3 °F - 24.1 °F 29% 30.25 in 10.0 mi NNW 12.7 mph 18.4 mph N/A   Clear
3:51 PM 56.3 °F - 23.4 °F 28% 30.25 in 10.0 mi WNW 6.9 mph 17.3 mph N/A   Clear
4:10 PM 57.2 °F - 23.7 °F 28% 30.24 in 10.0 mi NNW 9.2 mph 17.3 mph N/A   Clear
4:30 PM 56.7 °F - 23.9 °F 28% 30.23 in 10.0 mi NW 11.5 mph 17.3 mph N/A   Clear
4:50 PM 56.5 °F - 24.1 °F 29% 30.23 in 10.0 mi NNW 6.9 mph 11.5 mph N/A   Clear
5:10 PM 56.3 °F - 23.9 °F 29% 30.22 in 10.0 mi NNW 8.1 mph - N/A   Clear
5:31 PM 56.3 °F - 24.4 °F 29% 30.22 in 10.0 mi NNW 8.1 mph - N/A   Clear
5:50 PM 55.4 °F - 24.3 °F 30% 30.22 in 10.0 mi NNW 8.1 mph - N/A   Clear
6:10 PM 54.5 °F - 24.4 °F 31% 30.22 in 10.0 mi North 4.6 mph - N/A   Clear
6:30 PM 53.4 °F - 24.4 °F 33% 30.22 in 10.0 mi NNW 4.6 mph - N/A   Clear
6:50 PM 51.6 °F - 25.2 °F 36% 30.22 in 10.0 mi NNW 3.5 mph - N/A   Clear
7:10 PM 51.1 °F - 24.6 °F 36% 30.22 in 10.0 mi Calm Calm - N/A   Clear
7:30 PM 50.5 °F - 24.6 °F 36% 30.22 in 10.0 mi Calm Calm - N/A   Clear
7:50 PM 50.5 °F - 24.3 °F 36% 30.22 in 10.0 mi Calm Calm - N/A   Clear
8:11 PM 49.5 °F - 24.8 °F 38% 30.22 in 10.0 mi WNW 3.5 mph - N/A   Clear
8:30 PM 48.6 °F - 24.8 °F 39% 30.22 in 10.0 mi WNW 3.5 mph - N/A   Clear
8:50 PM 47.8 °F - 25.2 °F 41% 30.22 in 10.0 mi West 3.5 mph - N/A   Clear
9:10 PM 45.0 °F - 26.6 °F 49% 30.23 in 10.0 mi Calm Calm - N/A   Clear
9:30 PM 43.3 °F 41.7 °F 28.0 °F 55% 30.23 in 10.0 mi WSW 3.5 mph - N/A   Clear
9:50 PM 43.0 °F 41.3 °F 28.0 °F 56% 30.22 in 10.0 mi SW 3.5 mph - N/A   Clear
10:10 PM 42.3 °F 39.4 °F 28.2 °F 58% 30.22 in 10.0 mi SW 4.6 mph - N/A   Clear
10:30 PM 41.4 °F 37.6 °F 28.0 °F 59% 30.22 in 10.0 mi WSW 5.8 mph - N/A   Clear
10:50 PM 44.2 °F 41.8 °F 26.4 °F 50% 30.21 in 10.0 mi SW 4.6 mph - N/A   Clear
11:10 PM 40.3 °F 35.5 °F 27.9 °F 61% 30.21 in 10.0 mi SW 6.9 mph - N/A   Clear
11:30 PM 38.5 °F 32.7 °F 28.2 °F 67% 30.21 in 10.0 mi SW 8.1 mph - N/A   Clear
11:50 PM 39.2 °F 33.6 °F 27.5 °F 63% 30.20 in 10.0 mi SW 8.1 mph - N/A   Clear